• In Uzbekistan
  • List of Countries
  • For 7 days
  • Water Temperature
  • Satellite Maps
  • Weather Map
  • Weather Widgets
  • user-avatar
    Login

    Hourly Weather Antoniow

    Today, 25 March, Monday

    Time Temperature Precipitation Wind Pressure Humidity
    00:00 +6°C° 0 mm 1 mps 746 mmHg 59%
    01:00 +6°C° 0 mm 1 mps 745 mmHg 62%
    02:00 +6°C° 0 mm 1 mps 745 mmHg 64%
    03:00 +5°C° 0 mm 1 mps 745 mmHg 65%
    04:00 +5°C° 0 mm 1 mps 744 mmHg 66%
    05:00 +5°C° 0 mm 1 mps 744 mmHg 66%
    06:00 +5°C° 0 mm 1 mps 743 mmHg 66%
    07:00 +5°C° 0 mm 1 mps 743 mmHg 66%
    08:00 +6°C° 0 mm 2 mps 743 mmHg 61%
    09:00 +7°C° 0 mm 3 mps 742 mmHg 56%
    10:00 +8°C° 0 mm 3 mps 742 mmHg 50%
    11:00 +8°C° 0.2 mm 4 mps 742 mmHg 49%
    12:00 +8°C° 0.2 mm 4 mps 741 mmHg 49%
    13:00 +8°C° 0.2 mm 4 mps 741 mmHg 48%
    14:00 +8°C° 0.2 mm 4 mps 741 mmHg 49%
    15:00 +8°C° 0.2 mm 4 mps 741 mmHg 50%
    16:00 +7°C° 0.2 mm 4 mps 741 mmHg 50%
    17:00 +7°C° 0.2 mm 3 mps 742 mmHg 58%
    18:00 +5°C° 0.2 mm 3 mps 742 mmHg 65%
    19:00 +4°C° 0.2 mm 3 mps 743 mmHg 73%
    20:00 +4°C° 0.2 mm 3 mps 743 mmHg 74%
    21:00 +4°C° 0.2 mm 3 mps 744 mmHg 75%
    22:00 +4°C° 0.2 mm 3 mps 744 mmHg 77%
    23:00 +3°C° 0 mm 3 mps 745 mmHg 79%

    Tomorrow, 26 March, Tuesday

    Time Temperature Precipitation Wind Pressure Humidity
    00:00 +2°C° 0 mm 3 mps 745 mmHg 82%
    01:00 +1°C° 0 mm 3 mps 746 mmHg 85%
    02:00 +1°C° 0 mm 3 mps 746 mmHg 88%
    03:00 0°C° 0 mm 3 mps 747 mmHg 90%
    04:00 0°C° 0 mm 3 mps 747 mmHg 93%
    05:00 0°C° 0 mm 3 mps 747 mmHg 92%
    06:00 -1°C° 0 mm 4 mps 748 mmHg 91%
    07:00 0°C° 0 mm 4 mps 748 mmHg 89%
    08:00 +1°C° 0 mm 5 mps 748 mmHg 81%
    09:00 +3°C° 0 mm 5 mps 748 mmHg 72%
    10:00 +4°C° 0 mm 6 mps 748 mmHg 63%
    11:00 +5°C° 0.1 mm 7 mps 747 mmHg 62%
    12:00 +5°C° 0.1 mm 8 mps 747 mmHg 60%
    13:00 +5°C° 0.1 mm 9 mps 746 mmHg 58%
    14:00 +5°C° 0.2 mm 9 mps 746 mmHg 59%
    15:00 +3°C° 0.2 mm 9 mps 746 mmHg 60%
    16:00 +3°C° 0.2 mm 10 mps 746 mmHg 61%
    17:00 +2°C° 0.2 mm 9 mps 747 mmHg 64%
    18:00 +1°C° 0.2 mm 8 mps 747 mmHg 67%
    19:00 +1°C° 0.2 mm 8 mps 748 mmHg 69%
    20:00 -1°C° 0 mm 6 mps 749 mmHg 67%
    21:00 -1°C° 0 mm 5 mps 750 mmHg 65%
    22:00 -2°C° 0 mm 4 mps 751 mmHg 62%
    23:00 -3°C° 0 mm 4 mps 751 mmHg 64%

    Day after tomorrow, 27 March, Wednesday

    Time Temperature Precipitation Wind Pressure Humidity
    00:00 -2°C° 0 mm 3 mps 751 mmHg 65%
    01:00 -2°C° 0 mm 3 mps 752 mmHg 67%
    02:00 -2°C° 0 mm 3 mps 752 mmHg 67%
    03:00 -2°C° 0 mm 3 mps 752 mmHg 67%
    04:00 -3°C° 0 mm 2 mps 753 mmHg 68%
    05:00 -2°C° 0 mm 2 mps 753 mmHg 64%
    06:00 -1°C° 0 mm 2 mps 753 mmHg 61%
    07:00 -1°C° 0 mm 2 mps 754 mmHg 58%
    08:00 +2°C° 0 mm 2 mps 754 mmHg 52%
    09:00 +2°C° 0 mm 3 mps 754 mmHg 45%
    10:00 +4°C° 0 mm 3 mps 755 mmHg 39%
    11:00 +5°C° 0 mm 3 mps 755 mmHg 38%
    12:00 +7°C° 0 mm 3 mps 755 mmHg 37%
    13:00 +8°C° 0 mm 3 mps 755 mmHg 36%
    14:00 +8°C° 0 mm 3 mps 755 mmHg 42%
    15:00 +7°C° 0 mm 3 mps 754 mmHg 47%
    16:00 +7°C° 0 mm 3 mps 754 mmHg 53%
    17:00 +6°C° 0 mm 2 mps 755 mmHg 59%
    18:00 +5°C° 0 mm 2 mps 755 mmHg 65%
    19:00 +4°C° 0 mm 2 mps 755 mmHg 71%
    20:00 +5°C° 0 mm 1 mps 755 mmHg 74%
    21:00 +5°C° 0 mm 1 mps 756 mmHg 77%
    22:00 +5°C° 0 mm 1 mps 756 mmHg 80%
    23:00 +5°C° 0 mm 1 mps 756 mmHg 82%

    28 March, Thursday

    Time Temperature Precipitation Wind Pressure Humidity
    00:00 +5°C° 0 mm 1 mps 756 mmHg 84%
    01:00 +4°C° 0 mm 2 mps 756 mmHg 86%
    02:00 +4°C° 0 mm 2 mps 756 mmHg 88%
    03:00 +4°C° 0 mm 2 mps 756 mmHg 89%
    04:00 +4°C° 0 mm 2 mps 756 mmHg 90%
    05:00 +4°C° 0.1 mm 2 mps 756 mmHg 90%
    06:00 +5°C° 0.1 mm 2 mps 756 mmHg 90%
    07:00 +4°C° 0.1 mm 3 mps 757 mmHg 89%
    08:00 +5°C° 0.2 mm 3 mps 757 mmHg 87%
    09:00 +7°C° 0.2 mm 2 mps 757 mmHg 86%
    10:00 +7°C° 0.2 mm 2 mps 757 mmHg 84%
    11:00 +8°C° 0.1 mm 2 mps 757 mmHg 81%
    12:00 +9°C° 0.1 mm 2 mps 757 mmHg 77%
    13:00 +9°C° 0.1 mm 2 mps 757 mmHg 74%
    14:00 +10°C° 0.1 mm 2 mps 757 mmHg 72%
    15:00 +10°C° 0.1 mm 2 mps 757 mmHg 69%
    16:00 +10°C° 0.1 mm 2 mps 757 mmHg 67%
    17:00 +10°C° 0.1 mm 1 mps 757 mmHg 73%
    18:00 +9°C° 0.1 mm 1 mps 757 mmHg 79%
    19:00 +8°C° 0.1 mm 1 mps 758 mmHg 85%
    20:00 +7°C° 0 mm 1 mps 758 mmHg 86%
    21:00 +7°C° 0 mm 1 mps 758 mmHg 87%
    22:00 +6°C° 0 mm 1 mps 758 mmHg 88%
    23:00 +6°C° 0 mm 1 mps 758 mmHg 89%

    29 March, Friday

    Time Temperature Precipitation Wind Pressure Humidity
    00:00 +6°C° 0 mm 1 mps 759 mmHg 90%
    01:00 +6°C° 0 mm 1 mps 759 mmHg 90%
    02:00 +5°C° 0 mm 1 mps 759 mmHg 91%
    03:00 +5°C° 0 mm 1 mps 759 mmHg 92%
    04:00 +5°C° 0 mm 1 mps 759 mmHg 92%
    05:00 +5°C° 0 mm 1 mps 759 mmHg 91%
    06:00 +6°C° 0 mm 1 mps 759 mmHg 90%
    07:00 +7°C° 0 mm 1 mps 759 mmHg 88%
    08:00 +8°C° 0 mm 1 mps 759 mmHg 80%
    09:00 +9°C° 0 mm 2 mps 759 mmHg 73%
    10:00 +12°C° 0 mm 2 mps 759 mmHg 65%
    11:00 +12°C° 0 mm 2 mps 758 mmHg 62%
    12:00 +12°C° 0 mm 2 mps 758 mmHg 59%
    13:00 +13°C° 0 mm 2 mps 758 mmHg 56%
    14:00 +13°C° 0 mm 2 mps 757 mmHg 56%
    15:00 +13°C° 0 mm 2 mps 757 mmHg 56%
    16:00 +13°C° 0 mm 2 mps 757 mmHg 56%
    17:00 +12°C° 0 mm 2 mps 757 mmHg 61%
    18:00 +9°C° 0 mm 2 mps 756 mmHg 67%
    19:00 +9°C° 0 mm 1 mps 756 mmHg 72%
    20:00 +8°C° 0 mm 2 mps 756 mmHg 74%
    21:00 +7°C° 0 mm 2 mps 756 mmHg 76%
    22:00 +7°C° 0 mm 2 mps 756 mmHg 78%
    23:00 +6°C° 0 mm 2 mps 756 mmHg 79%

    30 March, Saturday

    Time Temperature Precipitation Wind Pressure Humidity
    00:00 +6°C° 0 mm 2 mps 756 mmHg 81%
    01:00 +5°C° 0 mm 2 mps 756 mmHg 83%
    02:00 +5°C° 0 mm 2 mps 756 mmHg 84%
    03:00 +5°C° 0 mm 2 mps 755 mmHg 85%
    04:00 +5°C° 0 mm 2 mps 755 mmHg 87%
    05:00 +5°C° 0 mm 2 mps 755 mmHg 84%
    06:00 +6°C° 0 mm 2 mps 755 mmHg 82%
    07:00 +6°C° 0 mm 2 mps 755 mmHg 79%
    08:00 +8°C° 0 mm 2 mps 755 mmHg 72%
    09:00 +10°C° 0 mm 2 mps 754 mmHg 65%
    10:00 +13°C° 0 mm 2 mps 754 mmHg 57%
    11:00 +13°C° 0 mm 3 mps 754 mmHg 53%
    12:00 +14°C° 0 mm 3 mps 753 mmHg 50%
    13:00 +14°C° 0 mm 3 mps 752 mmHg 46%
    14:00 +16°C° 0 mm 3 mps 752 mmHg 46%
    15:00 +16°C° 0 mm 3 mps 751 mmHg 46%
    16:00 +16°C° 0 mm 3 mps 750 mmHg 46%
    17:00 +14°C° 0 mm 2 mps 750 mmHg 52%
    18:00 +12°C° 0 mm 2 mps 750 mmHg 57%
    19:00 +11°C° 0 mm 1 mps 749 mmHg 62%
    20:00 +9°C° 0 mm 2 mps 749 mmHg 64%
    21:00 +9°C° 0 mm 2 mps 749 mmHg 66%
    22:00 +8°C° 0 mm 2 mps 749 mmHg 68%
    23:00 +8°C° 0 mm 2 mps 748 mmHg 69%
    Show more